Home > Weather > Kyrenia > Past weeks

Flag for Cyprus Past Weather in Kyrenia, Northern Cyprus, Cyprus — Yesterday and Last 2 Weeks

Now
79 °F

Passing clouds.


Feels Like: 80 °F
Forecast: 79 / 91 °F
Wind: 13 mph from Northwest

Location: Ercan

Current Time: Jul 2, 2016 at 6:55:04 AM

Latest Report: Jul 2, 2016 at 6:20 AM


Visibility: N/A

Pressure: 29.74 "Hg

Humidity: 51%

Dew Point: 59 °F

Location of KyreniaLocation

Past Weather in Kyrenia — Graph

°F

Kyrenia Temperature Yesterday

Maximum temperature yesterday: 99 °F (at 3:20 PM)
Minimum temperature yesterday: 72 °F (at 4:50 AM)
Average temperature yesterday: 85 °F

High & Low Weather Summary for the Past Weeks

 TemperatureHumidityPressure
High106 °F (Jun 21, 1:20 PM)89% (Jun 24, 6:50 AM)29.83 "Hg (Jun 24, 6:50 AM)
Low68 °F (Jun 28, 5:50 AM)12% (Jun 18, 12:50 PM)29.62 "Hg (Jun 28, 2:50 PM)
Average88 °F40%29.74 "Hg
* Reported Jun 17 5:20 AM — Jul 2 5:20 AM, Kyrenia, Weather by CustomWeather, © 2016

Note: Actual official high and low records may vary slightly from our data, if they occured in-between our weather recording intervals... More about our weather records

Advertising

Kyrenia Weather History for the Previous 24 Hours

Scroll right to see more
 ConditionsComfort  
Time TempWeatherWind HumidityBarometerVisibility
5:20 AM
Sat, Jul 2
79 °FPassing clouds.14 mph48%29.74 "HgN/A
4:50 AM79 °FClear.14 mph48%29.74 "Hg10 mi
4:20 AM79 °FClear.12 mph48%29.74 "Hg10 mi
3:50 AM79 °FClear.10 mph51%29.74 "Hg10 mi
3:20 AM79 °FClear.12 mph54%29.74 "Hg10 mi
2:50 AM79 °FClear.13 mph58%29.74 "Hg10 mi
2:20 AM79 °FClear.15 mph61%29.74 "Hg10 mi
1:50 AM79 °FClear.16 mph61%29.77 "Hg10 mi
1:20 AM79 °FClear.16 mph58%29.77 "Hg10 mi
12:50 AM79 °FClear.15 mph70%29.77 "Hg10 mi
12:20 AM79 °FClear.13 mph70%29.80 "Hg10 mi
11:50 PM
Fri, Jul 1
81 °FClear.15 mph62%29.80 "Hg10 mi
11:20 PM81 °FClear.13 mph58%29.80 "Hg10 mi
10:50 PM81 °FClear.12 mph58%29.80 "Hg10 mi
10:20 PM81 °FClear.10 mph51%29.80 "Hg10 mi
9:50 PM82 °FClear.12 mph45%29.80 "Hg10 mi
9:20 PM84 °FClear.9 mph43%29.80 "Hg10 mi
8:50 PM86 °FSunny.6 mph38%29.80 "Hg10 mi
8:20 PM86 °FPassing clouds.6 mph38%29.77 "HgN/A
7:50 PM90 °FSunny.13 mph31%29.77 "Hg10 mi
7:20 PM91 °FSunny.16 mph30%29.77 "Hg10 mi
6:50 PM91 °FPassing clouds.21 mph32%29.77 "HgN/A
6:20 PM93 °FPassing clouds.20 mph32%29.74 "HgN/A
5:50 PM95 °FPassing clouds.7 mph26%29.77 "HgN/A
5:20 PM97 °FPassing clouds.12 mph25%29.77 "HgN/A
4:50 PM97 °FPassing clouds.13 mph23%29.77 "HgN/A
4:20 PM95 °FPassing clouds.10 mph26%29.77 "HgN/A
3:50 PM95 °FPassing clouds.12 mph26%29.77 "HgN/A
3:20 PM99 °FPassing clouds.7 mph25%29.77 "HgN/A
2:50 PM97 °FPassing clouds.12 mph28%29.77 "HgN/A
2:20 PM97 °FPassing clouds.12 mph28%29.77 "HgN/A
1:50 PM95 °FPassing clouds.12 mph30%29.80 "HgN/A
1:20 PM95 °FPassing clouds.7 mph30%29.80 "HgN/A
12:50 PM95 °FPassing clouds.6 mph26%29.80 "HgN/A
12:20 PM93 °FPassing clouds.7 mph34%29.80 "HgN/A
11:50 AM93 °FSunny.7 mph28%29.80 "Hg10 mi
11:20 AM91 °FSunny.5 mph30%29.83 "Hg10 mi
10:50 AM90 °FPassing clouds.5 mph31%29.83 "HgN/A
10:20 AM88 °FSunny.5 mph33%29.83 "Hg10 mi
9:50 AM86 °FPassing clouds.5 mph38%29.83 "HgN/A
9:20 AM84 °FSunny.3 mph45%29.83 "Hg10 mi
8:50 AM82 °FSunny.No wind51%29.83 "Hg10 mi
8:20 AM81 °FSunny.3 mph58%29.83 "Hg10 mi
7:50 AM77 °FSunny.No wind69%29.83 "Hg10 mi
7:20 AM75 °FSunny.6 mph78%29.83 "Hg10 mi
6:50 AM73 °FSunny.6 mph83%29.83 "Hg10 mi
6:20 AM72 °FPassing clouds.3 mph88%29.83 "HgN/A
Weather by CustomWeather, © 2016

See weather overviewHow to use our weather pages